Temp
60 59 58 57 57 56 54 53 52 53 52 51 51 50 50 50 50 50 50 50 50 51 51 52 52 54 55 56 57 58 56 56 53 56 61 61 59 59 59 60 59 57 58
57 56 54 54 55 54 53 52 53 51 51 51 50 50 50 50 50 50 49 50 49 49 50 51 51 53 51 52 54 54 55 55 53 49 55 54 53 56 56 57 62 67 59
59 57 54 53 52 52 52 52 52 52 51 52 51 50 49 49 49 49 48 48 47 47 47 48 48 50 49 50 52 52 53 53 51 50 49 52 54 56 56 58 59 58 64
63 59 54 53 53 53 53 52 52 51 50 50 50 49 49 50 49 49 48 47 47 47 48 49 49 49 48 48 50 50 51 51 52 50 50 51 54 55 56 53 54 57 58
61 60 58 55 55 54 54 53 53 53 52 52 50 49 49 49 49 48 48 47 46 46 48 50 50 52 53 52 50 49 49 49 50 49 50 51 50 51 52 55 54 57 58
58 57 56 53 54 54 53 53 52 52 51 52 53 51 49 52 48 49 49 48 48 48 48 49 51 53 53 53 54 54 52 50 49 49 49 49 50 53 57 56 55 54 51
58 55 53 51 52 53 52 51 50 49 50 52 53 53 53 53 48 48 50 49 50 50 49 50 52 55 55 55 54 55 53 55 55 52 50 52 54 56 56 55 54 53 52
56 54 52 52 54 53 51 49 48 49 49 50 51 54 53 54 49 48 50 50 51 52 51 52 53 52 53 54 53 53 54 55 55 55 55 55 55 53 55 56 55 54 54
57 55 54 54 53 53 52 50 48 48 48 50 53 50 50 52 48 48 48 49 50 52 54 56 52 52 53 51 54 53 54 55 58 56 56 52 51 51 52 52 51 50 50
56 55 54 53 51 51 53 51 48 47 48 48 49 51 49 52 48 48 50 50 50 50 51 52 52 53 50 49 52 52 51 52 54 55 53 51 50 51 52 51 52 50 50
58 57 57 52 51 50 54 51 48 49 50 48 48 50 49 52 50 47 48 49 48 50 54 53 54 51 48 47 48 53 52 52 53 54 54 53 54 53 54 53 53 53 51
57 58 57 54 53 56 54 53 52 49 47 49 50 49 51 52 50 46 46 47 52 53 53 54 54 49 48 46 47 49 49 49 52 53 53 53 54 56 58 57 55 55 57
59 58 57 56 57 56 55 53 52 51 49 50 50 50 52 55 55 49 46 46 47 49 53 52 48 46 46 47 46 48 48 50 51 52 53 54 55 58 57 56 57 56 56
59 57 56 55 56 57 58 55 53 53 52 52 52 52 52 52 52 54 53 50 47 50 52 52 52 52 52 53 52 48 51 53 53 53 53 56 57 55 55 55 54 54 53
57 58 59 59 57 58 59 59 58 57 52 52 51 51 50 51 55 52 53 54 54 52 51 53 54 53 53 54 55 56 54 54 53 54 54 54 55 55 55 55 55 55 54
59 58 59 59 60 60 60 59 52 54 49 48 47 50 52 50 48 45 47 49 48 48 51 54 55 56 57 57 56 56 57 56 57 57 56 57 57 57 56 56 55 53 53
58 59 59 58 60 60 57 59 59 51 46 47 46 46 46 53 46 45 45 44 45 46 55 56 57 57 57 58 59 59 59 59 59 59 58 58 58 58 54 53 53 54 53
61 55 62 64 64 63 62 62 63 61 58 56 43 45 43 43 43 44 42 41 50 48 56 58 59 59 60 61 61 60 60 60 60 60 60 59 57 56 53 52 52 50 48
63 62 62 64 66 63 65 65 65 63 63 63 62 44 45 39 39 39 39 56 57 59 59 58 59 60 61 62 61 62 61 61 59 59 58 56 55 54 52 52 51 41 41
65 57 57 66 66 65 66 66 65 64 63 64 64 60 58 45 48 50 50 55 59 61 62 63 62 61 61 62 63 62 64 61 59 58 57 55 53 51 49 48 47 46 44
66 65 53 64 66 65 67 66 67 67 66 66 67 67 53 57 58 59 58 57 59 60 62 63 65 66 64 64 66 59 60 58 55 53 53 52 50 47 47 46 44 44 43
66 66 66 63 64 64 65 65 67 67 67 67 68 68 41 60 62 62 62 62 62 62 64 64 65 67 68 61 59 58 57 55 53 52 51 49 46 46 45 44 43 42 43
58 66 65 65 63 57 62 65 66 65 66 66 68 68 57 63 64 64 66 67 66 65 65 66 64 65 59 57 56 56 55 52 51 50 48 46 45 44 43 43 44 44 44
46 50 54 54 56 57 61 59 56 50 53 62 66 67 68 63 65 65 67 65 65 64 60 60 58 57 55 54 54 55 51 48 49 48 46 44 44 44 44 44 43 46 46
41 41 41 40 47 53 54 53 53 55 57 59 60 66 64 66 66 64 58 56 52 53 52 53 52 52 52 52 50 43 35 35 42 35 44 46 45 46 45 46 47 47 48
35 35 35 36 36 37 39 41 45 50 52 50 48 46 50 53 55 52 51 49 48 49 48 48 49 50 49 43 41 34 33 33 37 33 39 44 45 46 48 48 48 47 47
MSLP
1016.63 1016.88 1017.04 1017.19 1017.34 1017.58 1017.82 1017.88 1017.95 1018.12 1018.11 1017.97 1017.89 1017.79 1018.23 1017.93 1017.69 1018.00 1017.90 1018.11 1018.24 1017.89 1018.06 1017.63 1017.75 1017.34 1017.29 1017.42 1018.22 1017.15 1018.34 1018.29 1019.64 1019.85 1020.26 1021.49 1022.52 1023.06 1023.58 1024.59 1025.49 1025.83 1025.74
1017.03 1017.32 1017.55 1017.57 1017.62 1017.79 1017.94 1018.05 1018.12 1018.29 1018.41 1018.47 1018.65 1018.75 1018.74 1018.66 1018.49 1018.23 1018.20 1018.64 1018.53 1018.55 1018.31 1018.61 1018.46 1017.89 1017.88 1017.99 1018.25 1018.18 1019.10 1018.85 1020.07 1020.79 1021.58 1021.58 1022.52 1023.66 1023.71 1023.96 1024.61 1024.90 1025.32
1016.86 1017.30 1017.67 1017.82 1017.96 1018.01 1018.01 1018.17 1018.15 1018.22 1018.42 1018.55 1018.69 1018.80 1018.87 1018.85 1018.86 1018.79 1019.02 1019.24 1019.12 1018.75 1018.75 1018.93 1019.04 1018.88 1018.58 1018.54 1018.89 1018.56 1018.76 1019.65 1020.65 1022.15 1023.09 1023.17 1023.30 1023.23 1024.22 1024.07 1024.31 1024.67 1024.38
1016.26 1016.92 1017.56 1018.01 1018.21 1018.33 1018.38 1018.48 1018.62 1018.60 1018.62 1018.78 1019.02 1019.02 1019.07 1019.13 1019.17 1019.37 1019.48 1019.51 1019.22 1019.12 1019.12 1019.29 1019.51 1019.66 1019.84 1019.30 1019.75 1019.89 1019.51 1020.00 1020.71 1023.23 1023.54 1023.94 1023.34 1023.63 1024.56 1024.64 1024.52 1024.63 1024.25
1016.38 1016.77 1017.17 1017.68 1018.15 1018.53 1018.56 1018.47 1018.64 1018.75 1018.99 1019.07 1019.34 1019.54 1019.53 1019.51 1019.62 1019.71 1019.63 1019.75 1019.42 1019.37 1019.31 1019.35 1019.43 1019.84 1020.06 1020.19 1020.30 1020.73 1020.80 1021.07 1021.65 1022.83 1023.61 1023.33 1023.45 1023.73 1024.32 1024.18 1024.12 1023.99 1023.49
1016.84 1017.10 1017.66 1018.04 1018.12 1018.26 1018.46 1018.60 1018.76 1018.92 1018.83 1019.15 1019.31 1019.59 1019.75 1019.60 1019.86 1019.85 1019.85 1019.77 1019.57 1019.66 1019.43 1019.47 1019.57 1019.79 1019.92 1020.37 1020.57 1020.74 1021.26 1021.84 1022.21 1022.34 1022.80 1023.04 1023.36 1023.30 1023.39 1023.46 1023.37 1023.12 1023.16
1016.97 1017.56 1017.83 1018.17 1018.21 1018.40 1018.57 1018.75 1018.83 1018.93 1018.99 1018.81 1019.08 1019.35 1019.35 1019.37 1019.87 1019.99 1019.91 1019.82 1019.77 1019.66 1019.59 1019.56 1019.59 1019.70 1019.96 1020.34 1020.74 1021.09 1021.40 1021.40 1021.56 1021.78 1022.52 1022.67 1022.18 1022.17 1022.37 1022.56 1022.73 1022.79 1023.03
1017.15 1017.60 1017.87 1018.04 1018.05 1018.39 1018.69 1018.80 1018.83 1018.84 1018.78 1018.73 1018.83 1018.80 1019.08 1019.34 1019.82 1020.11 1020.17 1019.92 1019.77 1019.71 1019.71 1019.61 1019.67 1019.89 1020.23 1020.65 1020.91 1021.44 1021.62 1021.42 1021.56 1021.94 1021.91 1021.97 1021.94 1022.19 1022.36 1022.13 1022.33 1022.53 1022.66
1016.85 1017.26 1017.63 1017.79 1018.01 1018.18 1018.36 1018.67 1018.95 1018.83 1018.91 1018.41 1018.51 1018.93 1019.09 1019.28 1019.75 1020.05 1020.14 1019.95 1019.93 1019.91 1019.92 1019.88 1020.28 1020.53 1020.58 1020.86 1021.07 1021.28 1021.26 1021.00 1020.79 1021.17 1021.25 1021.63 1021.78 1021.99 1022.23 1022.42 1022.51 1022.64 1022.48
1016.52 1016.87 1017.40 1017.63 1017.93 1018.10 1017.98 1018.41 1018.87 1018.96 1019.03 1019.14 1019.15 1019.07 1019.40 1019.30 1019.75 1019.91 1020.26 1020.19 1020.09 1019.99 1020.23 1020.39 1020.49 1020.42 1020.52 1020.78 1021.15 1021.02 1021.24 1021.04 1020.93 1020.97 1021.33 1021.59 1021.65 1021.74 1021.78 1022.00 1022.25 1022.57 1022.55
1016.20 1016.61 1016.75 1017.25 1017.66 1017.93 1017.95 1018.33 1018.68 1018.80 1019.06 1019.18 1019.15 1019.17 1019.43 1019.49 1019.68 1019.78 1019.89 1020.41 1020.43 1020.21 1019.83 1020.06 1020.14 1020.20 1020.61 1020.72 1020.86 1020.92 1020.96 1020.88 1020.91 1020.76 1020.64 1020.98 1021.09 1021.20 1021.15 1021.31 1021.48 1021.76 1021.74
1015.76 1015.95 1016.24 1016.80 1017.11 1017.22 1017.56 1018.03 1018.35 1018.75 1018.72 1018.80 1019.02 1019.21 1019.24 1019.29 1019.43 1019.58 1019.70 1019.78 1019.84 1019.84 1019.69 1019.65 1019.74 1019.95 1020.11 1020.35 1020.65 1020.80 1020.90 1020.92 1020.87 1020.72 1020.55 1020.45 1020.38 1020.30 1020.17 1020.14 1020.37 1020.47 1020.22
1014.92 1015.42 1015.91 1016.33 1016.44 1016.68 1016.99 1017.47 1017.82 1018.14 1018.37 1018.32 1018.34 1018.53 1018.43 1018.52 1018.72 1019.04 1019.38 1019.56 1019.73 1019.91 1019.79 1019.78 1019.75 1019.65 1019.65 1019.81 1020.02 1020.28 1020.58 1020.62 1020.67 1020.62 1020.28 1019.99 1019.82 1019.55 1019.06 1018.90 1018.85 1018.93 1019.12
1014.39 1014.76 1015.31 1015.71 1015.88 1016.09 1016.27 1016.56 1016.94 1017.18 1017.32 1017.37 1017.39 1017.54 1017.75 1017.91 1018.11 1018.35 1018.71 1018.99 1019.21 1019.35 1019.45 1019.50 1019.47 1019.53 1019.41 1019.25 1019.45 1019.69 1020.01 1020.04 1020.04 1019.95 1019.67 1019.37 1019.06 1018.80 1018.62 1018.52 1018.54 1018.41 1018.24
1013.73 1014.24 1014.50 1014.78 1015.12 1015.28 1015.48 1015.63 1015.94 1016.20 1016.67 1016.92 1017.27 1017.59 1017.51 1017.65 1017.48 1017.67 1017.87 1018.13 1018.38 1018.39 1018.64 1018.78 1018.56 1018.58 1018.64 1018.61 1018.61 1018.65 1018.93 1019.09 1019.14 1019.04 1019.01 1018.83 1018.53 1018.20 1018.01 1017.76 1017.56 1017.42 1017.37
1012.67 1013.26 1013.60 1013.82 1013.99 1014.21 1014.12 1014.31 1014.62 1014.83 1015.38 1015.90 1016.16 1016.87 1017.33 1017.19 1016.82 1016.84 1016.99 1017.26 1017.34 1017.41 1017.79 1017.69 1017.34 1017.22 1017.13 1017.20 1017.27 1017.38 1017.44 1017.50 1017.58 1017.61 1017.61 1017.46 1017.33 1017.17 1017.00 1016.82 1016.75 1016.89 1016.87
1011.92 1012.31 1012.54 1012.85 1013.02 1013.05 1013.26 1013.22 1013.54 1014.40 1014.48 1014.86 1015.19 1015.60 1016.20 1016.22 1016.26 1016.03 1016.27 1016.73 1016.86 1016.96 1016.86 1016.68 1016.41 1016.14 1016.05 1015.90 1015.85 1015.83 1015.88 1015.97 1015.98 1016.20 1016.20 1016.22 1016.13 1016.24 1016.34 1016.64 1016.73 1016.68 1016.55
1010.93 1011.25 1011.53 1011.43 1011.49 1011.63 1011.99 1012.13 1012.35 1012.92 1013.62 1014.27 1014.67 1014.98 1015.26 1015.40 1015.55 1015.72 1015.98 1016.49 1016.85 1016.77 1016.26 1015.87 1015.65 1015.53 1015.35 1015.02 1014.75 1014.66 1014.68 1014.68 1014.70 1014.77 1014.94 1015.07 1015.30 1015.75 1016.00 1016.18 1016.31 1016.53 1016.84
1009.81 1010.29 1010.54 1010.58 1010.69 1010.77 1010.65 1010.85 1011.15 1011.54 1011.74 1011.89 1012.40 1013.77 1014.16 1014.71 1015.35 1015.69 1015.78 1015.48 1015.35 1015.09 1014.97 1014.99 1014.93 1014.66 1014.34 1014.04 1013.83 1013.71 1013.69 1013.72 1013.85 1014.14 1014.46 1014.80 1015.30 1015.65 1016.02 1016.31 1016.47 1016.66 1016.72
1008.39 1008.82 1009.09 1009.33 1009.51 1009.78 1009.84 1009.81 1010.00 1010.32 1010.55 1010.57 1010.81 1011.63 1012.56 1014.44 1015.09 1015.14 1014.98 1014.64 1014.27 1013.87 1013.47 1013.25 1013.39 1013.56 1013.50 1013.35 1013.18 1013.07 1012.93 1012.93 1013.63 1014.12 1014.61 1015.03 1015.58 1016.06 1016.61 1016.83 1016.97 1016.90 1016.84
1007.39 1007.80 1008.18 1008.60 1008.67 1008.69 1008.68 1008.77 1008.85 1008.91 1009.11 1009.21 1009.30 1009.23 1010.19 1011.56 1012.22 1012.76 1012.89 1013.09 1012.99 1012.80 1012.57 1012.37 1012.18 1012.08 1012.20 1012.28 1011.88 1012.33 1013.09 1013.76 1014.23 1014.56 1014.83 1015.48 1015.89 1016.44 1016.57 1016.76 1017.01 1016.94 1016.67
1007.17 1007.54 1007.62 1007.87 1008.25 1008.18 1008.04 1008.04 1008.25 1008.19 1008.21 1008.29 1008.34 1008.53 1009.26 1009.97 1010.34 1010.69 1010.85 1010.95 1011.13 1011.18 1011.27 1011.27 1011.34 1011.42 1011.01 1011.63 1012.18 1012.76 1013.42 1013.97 1014.49 1014.96 1015.44 1015.92 1016.31 1016.50 1016.72 1016.84 1016.77 1016.58 1016.24
1007.83 1006.71 1006.53 1006.82 1007.13 1007.63 1007.58 1007.49 1007.44 1007.36 1007.63 1007.69 1007.78 1008.07 1008.90 1008.95 1008.76 1009.01 1008.96 1008.86 1009.25 1009.66 1010.14 1010.34 1010.13 1010.72 1011.76 1012.32 1012.72 1013.22 1013.82 1014.49 1015.03 1015.39 1015.73 1016.00 1016.22 1016.41 1016.58 1016.58 1016.28 1015.95 1015.54
1009.76 1008.38 1008.02 1008.19 1008.15 1007.32 1007.16 1007.08 1007.25 1007.28 1007.49 1007.75 1007.21 1007.38 1007.28 1007.77 1007.57 1007.54 1007.67 1007.87 1008.55 1008.66 1009.03 1010.32 1010.55 1010.95 1012.06 1012.86 1013.27 1013.64 1014.53 1015.14 1015.15 1015.48 1016.05 1016.24 1016.29 1016.26 1016.21 1016.11 1015.77 1015.16 1014.69
1010.80 1010.48 1010.55 1010.37 1009.29 1007.96 1007.83 1007.53 1007.71 1007.82 1007.36 1007.81 1008.07 1006.95 1006.97 1007.70 1006.31 1006.29 1007.18 1007.92 1008.80 1010.29 1010.51 1011.04 1012.03 1012.64 1012.77 1013.37 1014.02 1014.81 1015.43 1015.76 1016.04 1016.42 1016.35 1016.21 1016.16 1015.94 1015.64 1015.15 1014.76 1014.46 1014.02
1011.93 1011.88 1011.66 1011.38 1010.64 1009.68 1009.36 1009.10 1008.68 1008.10 1007.95 1008.40 1008.66 1008.82 1008.19 1007.49 1007.38 1007.42 1008.05 1008.67 1009.66 1010.93 1011.35 1011.73 1011.99 1013.35 1013.84 1014.97 1015.43 1015.64 1015.95 1016.27 1016.51 1016.85 1016.79 1016.35 1015.97 1015.51 1014.97 1014.53 1014.19 1013.91 1013.70
Wind_Speed
6 6 6 7 6 7 7 6 5 5 5 5 5 5 3 3 4 4 5 4 5 6 4 6 6 6 4 4 2 4 4 3 6 7 7 8 5 9 7 6 7 6 7
5 5 5 6 6 7 6 5 5 6 5 5 4 4 4 4 3 4 7 5 6 6 7 7 6 6 8 7 6 7 4 6 7 10 4 5 7 5 4 6 4 5 7
4 4 4 4 4 4 5 5 6 5 5 5 5 5 5 4 6 7 7 7 7 8 8 8 8 9 9 8 8 8 8 10 9 7 4 4 2 4 0 3 4 5 5
3 6 5 3 3 4 4 5 5 4 5 6 5 6 5 5 6 7 7 6 6 6 6 7 7 8 7 9 8 9 9 11 11 5 5 5 3 4 3 3 5 5 5
4 4 5 7 5 2 2 3 3 4 3 4 5 4 4 4 4 5 5 5 5 5 5 4 5 5 10 8 6 5 7 7 7 6 5 3 2 3 7 6 5 6 7
5 5 6 6 4 3 3 3 3 2 5 5 6 6 5 4 8 9 6 4 4 4 5 3 4 4 8 9 9 9 7 7 7 4 4 2 8 6 9 6 5 3 3
4 4 4 2 2 2 1 2 3 3 5 7 6 7 7 7 11 8 8 3 4 4 4 4 5 6 6 6 3 6 5 4 2 3 8 10 6 3 4 3 0 1 2
6 5 3 3 2 2 3 2 1 2 4 6 6 8 5 7 12 8 8 4 3 3 4 4 4 4 1 4 4 4 5 6 6 5 4 2 3 3 3 0 2 2 3
7 5 4 5 2 4 5 5 1 3 4 3 1 5 5 7 10 11 8 5 6 4 4 2 4 7 10 10 6 6 6 4 5 8 7 7 7 5 3 2 2 2 5
7 6 5 5 5 6 5 5 3 2 1 3 2 4 3 5 8 7 6 3 2 1 2 5 5 4 2 9 5 4 5 6 6 3 3 4 6 6 9 6 3 5 6
7 7 6 7 7 5 2 5 4 2 2 4 3 2 2 4 7 8 7 4 5 7 4 4 3 7 8 9 7 4 4 2 4 5 6 5 5 6 6 8 9 9 9
8 8 8 8 8 7 7 6 7 6 7 7 6 6 7 8 10 10 11 10 6 5 4 3 2 14 15 13 8 10 9 3 3 4 4 3 5 6 8 10 13 12 11
10 9 8 9 8 7 6 7 7 8 8 8 9 8 8 8 7 13 13 12 11 7 4 4 6 8 9 9 11 7 7 4 4 5 6 5 6 7 7 5 5 9 14
9 10 10 9 8 8 6 4 4 5 5 3 3 1 3 3 5 5 7 6 10 6 8 8 10 8 7 6 7 7 6 6 6 7 6 7 6 4 3 3 3 5 6
11 10 9 8 10 10 9 8 9 8 7 4 3 2 5 6 8 10 9 8 7 10 9 8 8 7 8 7 7 7 8 8 8 8 8 7 7 6 6 6 6 7 8
11 8 8 9 9 9 9 9 15 12 17 16 17 12 10 12 16 12 16 12 12 7 5 7 8 8 9 8 9 9 9 11 10 10 10 9 9 8 7 5 5 4 7
8 9 8 12 10 10 9 8 8 5 6 18 19 18 18 13 13 12 14 11 9 6 5 8 8 5 5 5 6 7 8 11 12 9 8 9 9 7 3 1 4 6 8
13 12 8 7 7 7 10 11 8 8 9 9 11 11 13 11 11 12 12 8 3 4 7 8 8 7 7 8 6 5 5 5 5 6 7 6 3 2 1 3 3 4 6
14 11 11 10 9 10 8 9 9 9 9 9 9 9 12 13 7 2 8 7 9 9 9 9 9 8 8 7 6 5 6 5 3 1 3 4 4 4 4 4 4 4 5
12 13 10 10 10 9 9 9 10 10 11 11 10 10 10 9 8 9 9 9 9 8 8 9 11 10 10 10 9 7 9 5 2 2 2 3 4 4 4 5 5 7 7
9 10 11 9 9 8 9 10 10 9 10 10 10 9 16 14 14 12 12 11 11 11 11 10 9 8 11 12 11 3 5 4 6 5 4 3 4 2 2 4 6 6 7
9 10 11 12 11 11 10 9 11 10 10 10 10 9 15 14 12 13 14 13 13 13 12 11 10 10 4 6 7 6 5 5 5 4 4 3 3 3 2 4 5 6 7
11 13 12 10 11 11 9 10 10 8 10 10 9 9 8 11 12 14 14 13 12 13 12 12 7 6 7 7 7 6 5 4 4 3 3 2 3 2 3 6 6 7 8
8 15 5 8 8 7 11 10 5 6 4 11 10 11 11 11 12 13 10 4 4 2 9 7 8 11 9 7 5 6 8 6 5 6 5 3 3 4 4 6 8 10 9
10 10 9 10 10 5 8 5 8 11 12 14 12 13 12 15 10 9 6 6 9 7 11 10 8 10 10 10 11 14 9 9 7 4 3 4 6 7 8 7 8 9 9
12 11 8 7 9 10 10 7 7 4 3 2 5 7 9 11 6 6 8 11 11 7 11 7 10 12 12 12 10 10 9 8 6 6 5 6 7 8 7 8 9 7 9
Wind_Direction
45 36 36 40 43 47 52 55 49 65 56 42 50 50 25 66 74 76 83 76 77 59 48 87 76 77 56 58 339 64 37 95 143 152 130 128 111 142 137 120 165 194 192
61 57 56 60 57 63 72 76 82 80 75 84 80 77 69 66 64 91 84 73 87 87 86 67 51 79 73 64 66 94 91 75 130 107 122 114 109 122 148 160 208 234 189
102 74 64 80 90 95 90 95 87 100 111 110 103 98 92 94 96 89 94 92 82 72 68 69 62 62 58 68 63 81 98 98 88 92 93 43 61 88 151 178 202 253 272
121 116 116 75 71 79 84 79 73 66 78 85 76 73 82 80 97 101 107 97 90 85 83 79 73 66 58 70 65 54 78 87 103 125 136 180 150 158 186 212 246 236 239
115 136 128 140 138 125 115 123 119 123 111 113 116 106 104 106 111 119 118 130 121 110 97 101 108 138 97 92 97 88 63 75 110 145 168 130 135 186 210 222 219 225 229
119 102 89 79 70 185 162 143 172 179 157 176 169 166 180 156 141 141 140 143 140 152 141 139 138 141 125 137 117 114 130 137 161 164 159 194 211 199 200 218 219 209 257
193 157 128 129 176 119 126 192 222 246 260 208 185 199 205 159 167 167 168 164 169 169 175 178 168 143 148 122 138 153 129 147 176 182 206 220 201 170 187 171 21 349 245
200 185 177 214 227 231 233 208 247 244 284 234 216 199 194 146 177 200 232 285 222 212 185 173 110 100 128 159 162 210 237 195 196 197 204 280 47 52 23 201 201 232 273
207 201 207 233 185 239 227 209 191 46 352 11 186 132 200 151 173 190 213 225 179 180 140 107 114 195 207 219 209 195 213 244 242 228 235 169 172 158 118 26 297 286 271
211 204 206 186 188 240 243 196 175 185 355 352 329 117 49 171 174 188 183 72 322 326 256 209 198 236 234 177 207 221 229 235 235 217 238 245 225 228 203 195 199 245 258
221 213 193 174 192 238 205 190 193 214 242 224 233 288 165 242 177 187 161 178 222 227 209 190 211 246 218 229 227 240 240 352 329 291 206 217 226 224 220 213 213 215 227
203 203 178 173 187 210 189 185 199 186 223 227 206 196 213 205 219 205 192 220 258 295 245 269 231 210 225 214 203 226 246 279 295 283 274 251 234 240 223 217 218 218 225
188 199 184 194 201 215 205 194 207 205 212 216 197 197 203 197 206 189 206 221 237 242 268 332 349 332 236 223 212 222 222 226 242 261 263 252 246 248 240 233 222 200 222
187 180 195 194 198 221 222 200 228 223 234 253 322 65 202 214 197 206 214 211 228 226 243 262 251 246 232 206 190 209 217 222 227 241 244 249 252 253 254 242 236 235 231
193 200 196 197 197 203 208 206 211 222 193 193 239 239 268 244 231 207 209 206 208 211 206 231 238 210 219 215 222 219 199 209 222 235 243 249 249 244 243 235 238 249 251
190 192 201 212 203 222 222 214 219 201 194 186 189 189 230 247 258 231 206 217 206 203 190 230 240 213 215 215 214 212 216 205 213 215 218 225 232 236 242 246 244 258 280
200 214 215 214 213 210 219 224 206 208 193 198 203 204 207 205 223 216 183 179 188 167 217 215 237 241 262 239 225 215 211 210 216 221 229 235 234 233 251 346 295 290 290
206 208 231 245 225 208 210 206 205 197 198 209 222 209 214 202 187 168 164 150 194 227 242 236 240 241 252 244 232 225 226 228 224 215 220 229 192 177 290 286 298 351 337
200 207 211 226 221 229 232 207 211 215 227 221 203 193 199 190 186 201 179 205 211 221 205 217 239 247 244 256 245 234 228 233 241 346 29 42 33 16 353 330 335 330 322
205 219 222 205 214 228 239 234 209 216 228 225 222 188 176 145 189 201 208 219 234 238 238 227 209 221 232 238 245 236 235 196 311 116 78 57 56 27 350 339 327 318 316
206 208 208 229 240 226 225 232 238 236 222 231 232 203 181 187 197 202 202 209 220 229 238 242 254 244 214 223 233 112 82 70 67 63 58 28 31 29 350 347 329 303 292
217 228 210 210 221 231 236 226 245 247 246 243 242 224 173 188 193 200 206 207 213 215 223 226 227 244 255 68 72 70 64 56 55 45 29 29 10 2 336 283 280 279 276
321 237 219 198 205 225 235 237 246 238 240 256 253 253 173 206 196 204 213 211 208 207 218 232 182 125 90 80 75 75 78 73 70 72 37 28 10 8 346 295 284 289 277
0 353 314 297 284 251 235 240 247 235 277 292 240 243 240 202 212 223 235 203 242 72 80 48 47 76 84 83 81 73 67 49 45 48 41 21 320 293 281 269 263 273 284
30 35 15 355 337 286 260 236 264 280 243 257 289 254 204 255 240 198 116 104 101 90 82 82 74 74 78 80 79 81 70 56 42 16 306 285 265 266 257 254 266 276 296
31 26 26 5 17 14 7 1 3 312 277 335 32 346 13 10 16 110 108 106 95 91 98 97 96 91 75 74 77 78 71 59 50 20 330 299 289 283 290 311 310 311 315